This demonstration page uses our WeatherBlox Daily Observations layout. Learn more.

Left ArrowRight Arrow

Hourly Observations for July 12, 2021

Temp ( °F °C ) Dew Point ( °F °C ) Humidity (%) Winds ( mph kmh ) Pressure ( in mb ) Visibility ( mi km ) Precip ( " mm )
12:15 am 00:15 Clear 77 25 72 22 83 83 SSW 9 15 30.02 1017 10 16 N/A
12:35 am 00:35 Clear 77 25 70 21 79 79 SSW 7 11 30.02 1017 10 16 N/A
12:55 am 00:55 Clear 75 24 70 21 83 83 S 6 9 30.03 1017 10 16 N/A
1:15 am 01:15 Clear 75 24 70 21 83 83 SSW 5 7 30.03 1017 10 16 N/A
1:35 am 01:35 Clear 73 23 70 21 89 89 SW 5 7 30.03 1017 10 16 N/A
1:55 am 01:55 Clear 73 23 70 21 89 89 SW 5 7 30.04 1017 10 16 N/A
2:15 am 02:15 Clear 73 23 70 21 89 89 SSW 3 6 30.04 1017 10 16 N/A
2:35 am 02:35 Partly Cloudy 72 22 70 21 94 94 SSW 5 7 30.04 1017 10 16 N/A
2:55 am 02:55 Mostly Cloudy 72 22 70 21 94 94 S 6 9 30.04 1017 10 16 N/A
3:15 am 03:15 Mostly Cloudy 72 22 70 21 94 94 S 6 9 30.03 1017 10 16 N/A
3:35 am 03:35 Partly Cloudy 72 22 68 20 88 88 S 8 13 30.03 1017 10 16 N/A
3:55 am 03:55 Partly Cloudy 72 22 68 20 88 88 S 7 11 30.03 1017 10 16 N/A
4:15 am 04:15 Clear 72 22 68 20 88 88 S 6 9 30.04 1017 10 16 N/A
4:35 am 04:35 Clear 70 21 68 20 94 94 S 7 11 30.04 1017 10 16 N/A
4:55 am 04:55 Clear 70 21 68 20 94 94 SSW 7 11 30.04 1017 10 16 N/A
5:15 am 05:15 Clear 68 20 68 20 100 100 SSW 6 9 30.04 1017 10 16 N/A
5:35 am 05:35 Clear 68 20 68 20 100 100 SSW 3 6 30.05 1018 10 16 N/A
5:55 am 05:55 Sunny 68 20 66 19 94 94 SSW 5 7 30.05 1018 10 16 N/A
6:15 am 06:15 Partly Cloudy 66 19 66 19 100 100 N N/A 30.06 1018 10 16 N/A
6:35 am 06:35 Partly Cloudy 68 20 66 19 94 94 S 3 6 30.07 1018 10 16 N/A
6:55 am 06:55 Sunny 68 20 66 19 94 94 N N/A 30.07 1018 10 16 N/A
7:15 am 07:15 Sunny 68 20 66 19 94 94 SSW 5 7 30.08 1019 10 16 N/A
7:35 am 07:35 Partly Cloudy 68 20 66 19 94 94 SSW 6 9 30.09 1019 10 16 N/A
7:55 am 07:55 Mostly Cloudy 68 20 66 19 94 94 WSW 3 6 30.09 1019 10 16 N/A
8:15 am 08:15 Cloudy 70 21 66 19 88 88 N N/A 30.09 1019 10 16 N/A
8:35 am 08:35 Mostly Cloudy 70 21 68 20 94 94 W 3 6 30.09 1019 10 16 N/A
8:55 am 08:55 Mostly Cloudy 72 22 68 20 88 88 WSW 5 7 30.11 1020 10 16 N/A
9:15 am 09:15 Cloudy 72 22 68 20 88 88 N N/A 30.12 1020 10 16 N/A
9:35 am 09:35 Mostly Cloudy 73 23 68 20 83 83 N N/A 30.12 1020 10 16 N/A
9:55 am 09:55 Mostly Cloudy 73 23 70 21 89 89 S 3 6 30.12 1020 10 16 N/A
10:15 am 10:15 Mostly Cloudy 77 25 70 21 79 79 SSE 3 6 30.11 1020 10 16 N/A
10:35 am 10:35 Partly Cloudy 77 25 70 21 79 79 N N/A 30.11 1020 10 16 N/A
10:55 am 10:55 Partly Cloudy 79 26 70 21 74 74 S 5 7 30.11 1020 10 16 N/A
11:15 am 11:15 Partly Cloudy 81 27 72 22 74 74 N N/A 30.11 1020 10 16 N/A
11:35 am 11:35 Partly Cloudy 81 27 70 21 70 70 N N/A 30.11 1020 10 16 N/A
11:55 am 11:55 Sunny 82 28 70 21 66 66 N N/A 30.11 1020 10 16 N/A
12:15 pm 12:15 Sunny 82 28 70 21 66 66 S 3 6 30.10 1019 10 16 N/A
12:35 pm 12:35 Sunny 84 29 70 21 62 62 SSE 5 7 30.10 1019 10 16 N/A
12:55 pm 12:55 Sunny 86 30 70 21 59 59 SSW 6 9 30.10 1019 10 16 N/A
1:15 pm 13:15 Sunny 86 30 70 21 59 59 WSW 6 9 30.10 1019 10 16 N/A
1:35 pm 13:35 Sunny 88 31 70 21 55 55 SSE 5 7 30.10 1019 10 16 N/A
1:55 pm 13:55 Partly Cloudy 90 32 70 21 52 52 SW 5 7 30.09 1019 10 16 N/A
2:15 pm 14:15 Partly Cloudy 88 31 70 21 55 55 SW 3 6 30.09 1019 10 16 N/A
2:35 pm 14:35 Partly Cloudy 90 32 70 21 52 52 S 10 17 30.08 1018 10 16 N/A
2:55 pm 14:55 Partly Cloudy 90 32 70 21 52 52 S 10 17 30.07 1018 10 16 N/A
3:15 pm 15:15 Partly Cloudy 90 32 70 21 52 52 SSW 9 15 30.06 1018 10 16 N/A
3:35 pm 15:35 Partly Cloudy 90 32 70 21 52 52 SSW 8 13 30.07 1018 10 16 N/A
3:55 pm 15:55 Partly Cloudy 91 33 72 22 52 52 SSW 9 15 30.07 1018 10 16 N/A
4:15 pm 16:15 Partly Cloudy 90 32 72 22 55 55 SW 5 7 30.08 1018 10 16 N/A
4:35 pm 16:35 Mostly Cloudy 88 31 68 20 52 52 N 8 13 30.09 1019 10 16 N/A
4:55 pm 16:55 Cloudy 82 28 68 20 62 62 NNW 14 22 30.09 1019 10 16 N/A
5:15 pm 17:15 Mostly Cloudy 81 27 68 20 66 66 NNW 8 13 30.08 1019 10 16 N/A
5:35 pm 17:35 Mostly Cloudy 82 28 70 21 66 66 NNW 5 7 30.08 1019 10 16 N/A
5:55 pm 17:55 Partly Cloudy 84 29 70 21 62 62 N N/A 30.08 1019 10 16 N/A
6:15 pm 18:15 Sunny 84 29 70 21 62 62 ENE 9 15 30.08 1019 10 16 N/A
6:35 pm 18:35 Sunny 82 28 70 21 66 66 NE 6 9 30.08 1019 10 16 N/A
6:55 pm 18:55 Sunny 84 29 72 22 66 66 ESE 5 7 30.08 1019 10 16 N/A
7:15 pm 19:15 Partly Cloudy 82 28 72 22 70 70 NE 6 9 30.09 1019 10 16 N/A
7:35 pm 19:35 Mostly Cloudy 82 28 72 22 70 70 ENE 5 7 30.09 1019 10 16 N/A
7:55 pm 19:55 Cloudy 82 28 72 22 70 70 ENE 3 6 30.09 1019 10 16 N/A
8:15 pm 20:15 Mostly Cloudy 81 27 72 22 74 74 NNE 3 6 30.10 1019 10 16 N/A
8:35 pm 20:35 Cloudy 81 27 72 22 74 74 N N/A 30.10 1019 10 16 N/A
8:55 pm 20:55 Cloudy 81 27 73 23 79 79 NE 5 7 30.10 1019 10 16 N/A
9:15 pm 21:15 Partly Cloudy 79 26 73 23 84 84 N N/A 30.11 1020 10 16 N/A
9:35 pm 21:35 Mostly Cloudy 79 26 73 23 84 84 ESE 5 7 30.12 1020 10 16 N/A
9:55 pm 21:55 Mostly Cloudy 79 26 73 23 84 84 SE 3 6 30.13 1020 10 16 N/A
10:15 pm 22:15 Partly Cloudy 79 26 73 23 84 84 N N/A 30.14 1021 10 16 N/A
10:35 pm 22:35 Partly Cloudy 77 25 73 23 89 89 N N/A 30.13 1020 10 16 N/A
10:55 pm 22:55 Clear 77 25 73 23 89 89 S 3 6 30.12 1020 10 16 N/A
11:15 pm 23:15 Clear 77 25 72 22 83 83 N N/A 30.12 1020 10 16 N/A
11:35 pm 23:35 Clear 75 24 72 22 89 89 N N/A 30.13 1020 10 16 N/A
11:55 pm 23:55 Clear with Nearby Thunderstorms 75 24 72 22 89 89 N N/A 30.14 1021 10 16 N/A

Powered by AerisWeather